RH
19 18 17 18 21 22 24 24 25 27 38 56 56 58 63 65 69 57 50 57 58 48 48 51 65 74 76 78 73 74 72 72 76
21 20 19 22 21 24 26 27 28 32 40 51 52 51 63 69 69 64 59 66 63 50 60 52 69 72 73 73 76 77 77 72 74
23 24 24 24 23 25 28 26 27 32 39 46 50 52 60 61 62 64 73 67 65 65 70 75 67 63 64 66 71 74 70 61 63
24 25 26 27 29 29 29 27 29 31 40 49 55 57 59 63 62 66 69 61 73 74 68 67 67 64 64 66 69 72 71 68 73
23 25 28 28 30 32 34 34 37 42 49 54 58 61 63 71 70 67 57 61 61 64 64 67 70 65 63 68 69 75 79 72 73
28 30 33 30 33 38 44 43 48 57 61 64 66 66 62 59 58 55 56 57 57 61 64 63 57 61 65 74 74 79 70 72 68
30 34 36 38 43 48 49 54 62 64 62 62 62 52 54 58 56 56 52 58 58 58 61 60 61 64 65 62 59 60 64 63 60
29 34 34 37 43 49 57 62 64 62 59 58 53 57 60 64 62 60 62 68 74 69 66 67 68 68 65 59 48 40 60 56 52
30 34 34 35 45 50 56 60 61 60 60 59 57 61 60 66 70 70 69 69 66 69 75 75 72 66 61 54 33 66 64 52 42
27 32 34 38 48 51 50 52 53 54 57 57 63 64 66 69 70 70 72 69 70 70 67 66 64 58 55 56 52 62 59 58 36
23 29 34 40 43 46 47 45 42 45 50 60 63 66 67 68 70 71 71 71 71 70 66 65 62 56 52 55 56 68 58 60 50
18 24 30 36 38 40 49 45 46 51 53 57 62 64 68 68 67 70 71 71 69 64 62 58 56 53 53 53 64 69 74 72 48
18 21 27 34 36 40 45 47 45 52 53 57 61 65 69 73 68 69 69 69 67 60 58 55 40 49 51 59 57 74 75 73 38
18 23 29 35 39 44 46 46 46 55 57 56 59 72 75 76 72 71 68 65 60 60 58 56 56 52 51 49 52 67 73 66 52
23 27 32 36 44 47 44 46 49 56 75 69 74 78 79 79 72 54 53 62 62 59 59 60 60 59 52 41 52 73 70 61 60
25 30 37 36 47 56 47 49 50 64 76 75 81 77 77 72 65 53 57 61 62 51 58 50 48 37 33 30 35 44 77 72 70
29 32 41 47 63 54 63 65 64 65 74 78 74 78 77 69 60 65 55 46 42 38 32 32 31 31 28 26 28 28 32 33 44
33 39 43 68 66 69 72 76 82 86 89 88 84 78 66 63 57 60 57 51 41 35 47 43 32 30 28 28 27 38 54 52 36
36 49 80 80 75 83 92 96 95 95 92 92 90 73 67 43 40 41 38 36 35 75 68 66 68 71 54 32 61 73 74 77 81
78 68 84 92 97 96 96 95 98 97 96 90 89 77 54 38 35 30 33 33 33 36 49 78 76 73 71 71 64 76 79 81 80
Wind_Speed
7 8 15 16 16 15 14 13 13 13 13 13 12 10 9 6 6 7 4 3 5 5 3 2 3 4 3 5 3 4 4 4 5
8 9 9 12 15 15 15 13 13 13 12 11 10 10 7 7 7 1 3 2 4 5 3 1 4 4 6 7 6 6 4 4 5
9 9 10 10 10 10 10 12 13 12 11 10 9 10 8 8 8 5 5 4 2 1 4 2 2 4 5 5 6 5 6 5 6
11 12 13 13 10 12 13 12 11 12 11 11 10 10 9 8 6 5 8 6 6 5 4 6 4 5 7 9 9 6 5 6 7
14 14 13 12 12 11 10 11 10 11 12 12 11 10 9 7 7 8 7 6 6 5 6 7 4 5 5 7 6 7 8 8 8
15 15 14 14 14 13 11 11 10 10 10 11 10 9 9 9 9 8 8 7 7 6 5 4 5 4 5 5 5 5 5 5 6
15 14 15 14 14 13 12 11 12 12 12 12 12 11 10 10 8 8 8 6 5 5 4 3 5 5 3 4 3 3 4 3 3
16 16 17 17 16 14 14 14 13 13 12 12 12 11 10 10 9 8 8 8 7 4 3 4 3 3 2 3 0 7 7 4 4
16 18 18 18 17 17 17 17 15 13 12 12 11 11 11 9 8 8 8 6 4 5 6 4 3 3 1 4 7 7 7 7 3
16 18 19 18 18 18 18 17 16 15 14 13 12 11 10 10 9 8 6 6 5 4 3 2 1 1 1 4 5 3 6 8 1
16 18 19 18 17 18 19 18 18 16 15 13 12 11 10 10 9 8 6 5 5 3 2 1 1 1 0 3 5 3 1 7 7
13 18 18 18 18 19 18 18 17 16 16 15 13 12 10 9 8 8 7 5 4 2 1 2 2 1 1 2 6 3 3 5 9
9 16 17 18 19 18 18 18 18 17 16 15 14 12 10 8 7 7 6 5 3 2 2 2 4 3 3 3 3 4 1 4 8
9 14 17 18 19 17 18 18 18 17 15 15 12 10 9 8 8 7 6 4 3 3 4 3 3 2 2 4 2 5 3 4 7
10 16 17 19 17 16 18 18 17 16 14 11 12 11 10 9 8 6 6 6 4 4 2 4 4 4 7 9 6 4 7 3 2
9 14 15 17 14 14 18 18 17 16 12 14 12 12 11 10 9 6 7 6 5 5 5 7 6 5 6 4 5 7 12 11 10
8 11 14 12 12 17 14 14 13 17 16 13 14 13 12 11 10 7 8 7 7 8 4 3 3 4 5 5 4 4 1 2 6
8 12 13 9 12 13 15 14 17 13 12 8 6 6 7 7 6 7 6 4 4 4 8 7 8 8 6 6 5 6 5 4 7
6 9 8 12 12 12 12 15 16 12 8 12 11 8 6 8 8 6 6 5 5 7 6 6 3 0 3 5 6 4 4 7 8
7 7 10 12 10 16 16 21 16 15 15 12 8 10 9 6 5 7 6 6 7 8 5 4 7 8 9 10 11 10 10 11 12
Wind_Direction
155 182 188 199 189 200 200 208 194 197 178 200 199 198 203 184 176 205 224 190 328 241 195 190 23 358 333 354 327 316 339 348 353
163 169 175 190 186 191 193 198 190 196 183 194 185 176 162 167 182 177 39 64 220 182 179 65 46 23 29 44 30 24 25 36 15
135 142 160 166 182 171 181 193 187 183 172 179 166 150 161 174 158 172 126 187 40 336 73 96 87 59 70 67 54 31 349 33 49
151 158 158 161 158 172 176 170 168 165 165 145 156 150 153 130 140 146 190 170 143 130 137 100 84 61 48 41 44 39 35 34 44
159 160 155 156 157 161 155 150 147 144 141 146 149 144 146 135 173 199 164 147 117 141 105 98 96 66 68 73 51 31 31 31 26
158 160 166 160 160 154 154 153 146 142 142 137 139 144 158 157 155 159 136 145 129 115 95 65 93 94 74 59 79 73 58 39 40
166 170 173 165 156 164 162 154 152 151 145 147 145 150 149 143 141 131 134 113 102 94 91 91 63 51 71 83 76 74 53 42 41
177 182 182 172 167 171 164 158 159 157 148 144 150 148 144 145 151 131 115 92 84 84 80 90 92 95 36 290 111 39 359 29 23
191 188 193 180 168 176 167 166 162 155 150 152 153 154 147 134 132 147 133 122 114 130 126 136 182 203 97 14 56 27 10 354 92
200 196 192 184 172 177 172 167 161 162 160 159 159 160 147 156 150 141 133 141 138 135 131 102 6 1 41 107 104 66 358 340 308
194 200 191 182 179 183 170 166 163 158 160 162 163 158 160 160 158 146 147 149 133 140 121 138 209 231 233 165 108 148 332 329 292
207 198 188 178 181 180 169 167 162 160 161 164 165 166 165 164 158 152 154 148 136 123 153 207 211 182 227 253 125 189 254 303 307
230 187 182 177 177 168 171 168 164 165 167 167 171 164 163 152 160 153 156 134 137 138 198 210 252 209 229 23 176 165 231 275 298
221 173 176 176 171 168 170 169 166 173 162 174 162 129 134 145 152 165 130 141 146 178 216 102 270 266 277 276 307 111 57 1 295
211 166 174 179 171 165 169 170 166 168 171 151 144 142 147 153 152 163 142 158 167 201 192 210 220 250 260 216 200 153 144 164 321
198 168 171 179 159 159 171 172 174 154 157 142 136 149 152 155 157 143 145 171 180 203 209 272 231 235 269 286 192 166 164 187 208
180 173 170 173 160 169 168 170 157 142 144 146 157 163 160 161 155 156 170 191 189 239 231 243 281 288 296 329 305 301 154 274 215
197 177 177 151 157 157 169 150 125 134 124 116 121 141 156 178 155 179 169 267 28 345 55 39 358 355 339 320 318 57 35 349 324
230 163 117 148 163 141 113 125 109 100 114 128 148 165 189 201 153 165 189 158 161 74 89 97 101 58 339 332 67 47 327 294 278
61 113 125 136 129 130 137 132 132 144 147 163 173 179 190 180 195 175 179 198 195 185 201 241 232 226 227 222 261 263 256 259 261